When you browse on this site, cookies collect data to enhance your experience and personalize the content and advertising you see.
Visit our Privacy Policy to learn more. By continuing to use the site, you agree to this use of cookies and data.
  • In Switzerland
  • List of Countries
  • For 7 days
  • Water Temperature
  • Weather Map
  • Weather Widgets
  • user-avatar
    Login

    Hourly Weather Lucena

    Today, 19 January, Sunday

    Time Temperature Precipitation Wind Pressure Humidity
    00:00 +10°C° 0 mm 5 mps 719 mmHg 96%
    01:00 +10°C° 0.2 mm 4 mps 718 mmHg 96%
    02:00 +8°C° 0.2 mm 4 mps 718 mmHg 96%
    03:00 +8°C° 0.2 mm 3 mps 717 mmHg 96%
    04:00 +7°C° 0.2 mm 3 mps 717 mmHg 95%
    05:00 +5°C° 0.2 mm 4 mps 717 mmHg 95%
    06:00 +4°C° 0.2 mm 4 mps 716 mmHg 95%
    07:00 +5°C° 0 mm 4 mps 716 mmHg 92%
    08:00 +5°C° 0 mm 3 mps 717 mmHg 89%
    09:00 +5°C° 0 mm 3 mps 717 mmHg 86%
    10:00 +6°C° 0 mm 4 mps 717 mmHg 79%
    11:00 +7°C° 0 mm 5 mps 717 mmHg 73%
    12:00 +8°C° 0 mm 5 mps 716 mmHg 66%
    13:00 +8°C° 0.1 mm 6 mps 716 mmHg 68%
    14:00 +8°C° 0.1 mm 6 mps 715 mmHg 69%
    15:00 +7°C° 0.1 mm 6 mps 715 mmHg 70%
    16:00 +7°C° 0 mm 6 mps 715 mmHg 71%
    17:00 +5°C° 0 mm 6 mps 715 mmHg 72%
    18:00 +6°C° 0 mm 5 mps 715 mmHg 73%
    19:00 +5°C° 0 mm 5 mps 715 mmHg 75%
    20:00 +4°C° 0 mm 6 mps 715 mmHg 78%
    21:00 +3°C° 0 mm 6 mps 715 mmHg 80%
    22:00 +3°C° 0 mm 6 mps 715 mmHg 76%
    23:00 +2°C° 0 mm 6 mps 715 mmHg 71%

    Tomorrow, 20 January, Monday

    Time Temperature Precipitation Wind Pressure Humidity
    00:00 +2°C° 0 mm 6 mps 715 mmHg 67%
    01:00 +2°C° 0 mm 6 mps 715 mmHg 65%
    02:00 +1°C° 0 mm 6 mps 715 mmHg 64%
    03:00 +1°C° 0 mm 6 mps 714 mmHg 63%
    04:00 +1°C° 0 mm 6 mps 714 mmHg 66%
    05:00 0°C° 0 mm 7 mps 714 mmHg 69%
    06:00 0°C° 0 mm 7 mps 713 mmHg 72%
    07:00 0°C° 0 mm 7 mps 713 mmHg 71%
    08:00 0°C° 0 mm 7 mps 713 mmHg 70%
    09:00 +1°C° 0 mm 8 mps 712 mmHg 69%
    10:00 +2°C° 0 mm 8 mps 712 mmHg 67%
    11:00 +5°C° 0 mm 8 mps 712 mmHg 64%
    12:00 +6°C° 0 mm 9 mps 712 mmHg 62%
    13:00 +6°C° 0 mm 9 mps 712 mmHg 61%
    14:00 +6°C° 0 mm 9 mps 712 mmHg 61%
    15:00 +7°C° 0 mm 9 mps 711 mmHg 61%
    16:00 +6°C° 0 mm 8 mps 711 mmHg 65%
    17:00 +5°C° 0 mm 7 mps 711 mmHg 69%
    18:00 +4°C° 0 mm 6 mps 711 mmHg 73%
    19:00 +5°C° 0 mm 5 mps 712 mmHg 76%
    20:00 +4°C° 0 mm 4 mps 712 mmHg 79%
    21:00 +4°C° 0 mm 3 mps 712 mmHg 82%
    22:00 +4°C° 0 mm 2 mps 712 mmHg 83%
    23:00 +4°C° 0 mm 2 mps 712 mmHg 84%

    Day after tomorrow, 21 January, Tuesday

    Time Temperature Precipitation Wind Pressure Humidity
    00:00 +4°C° 0 mm 2 mps 712 mmHg 85%
    01:00 +4°C° 0 mm 2 mps 712 mmHg 86%
    02:00 +5°C° 0 mm 1 mps 711 mmHg 87%
    03:00 +4°C° 0 mm 1 mps 711 mmHg 87%
    04:00 +4°C° 0 mm 1 mps 711 mmHg 88%
    05:00 +4°C° 0 mm 1 mps 711 mmHg 89%
    06:00 +4°C° 0 mm 1 mps 711 mmHg 90%
    07:00 +5°C° 0 mm 1 mps 711 mmHg 87%
    08:00 +5°C° 0 mm 1 mps 711 mmHg 84%
    09:00 +6°C° 0 mm 1 mps 711 mmHg 81%
    10:00 +6°C° 0 mm 2 mps 711 mmHg 78%
    11:00 +7°C° 0 mm 2 mps 711 mmHg 76%
    12:00 +8°C° 0 mm 3 mps 711 mmHg 74%
    13:00 +8°C° 0 mm 2 mps 711 mmHg 74%
    14:00 +8°C° 0 mm 2 mps 710 mmHg 73%
    15:00 +9°C° 0 mm 1 mps 710 mmHg 73%
    16:00 +9°C° 0.1 mm 1 mps 709 mmHg 77%
    17:00 +8°C° 0.1 mm 1 mps 709 mmHg 81%
    18:00 +8°C° 0.1 mm 1 mps 709 mmHg 85%
    19:00 +7°C° 0.6 mm 1 mps 709 mmHg 87%
    20:00 +7°C° 0.6 mm 1 mps 710 mmHg 89%
    21:00 +6°C° 0.6 mm 2 mps 710 mmHg 91%
    22:00 +6°C° 0.8 mm 2 mps 710 mmHg 90%
    23:00 +6°C° 0.8 mm 2 mps 710 mmHg 90%

    22 January, Wednesday

    Time Temperature Precipitation Wind Pressure Humidity
    00:00 +7°C° 0.8 mm 1 mps 710 mmHg 89%
    01:00 +6°C° 0.2 mm 2 mps 711 mmHg 89%
    02:00 +6°C° 0.2 mm 2 mps 711 mmHg 89%
    03:00 +5°C° 0.2 mm 2 mps 711 mmHg 89%
    04:00 +6°C° 0.1 mm 2 mps 711 mmHg 88%
    05:00 +6°C° 0.1 mm 2 mps 711 mmHg 87%
    06:00 +6°C° 0.1 mm 2 mps 712 mmHg 87%
    07:00 +6°C° 0 mm 2 mps 712 mmHg 84%
    08:00 +6°C° 0 mm 2 mps 713 mmHg 82%
    09:00 +7°C° 0 mm 2 mps 713 mmHg 80%
    10:00 +8°C° 0 mm 2 mps 713 mmHg 73%
    11:00 +9°C° 0 mm 2 mps 713 mmHg 67%
    12:00 +10°C° 0 mm 3 mps 714 mmHg 60%
    13:00 +11°C° 0 mm 3 mps 713 mmHg 59%
    14:00 +11°C° 0 mm 3 mps 713 mmHg 59%
    15:00 +11°C° 0 mm 4 mps 713 mmHg 58%
    16:00 +10°C° 0.5 mm 3 mps 713 mmHg 66%
    17:00 +9°C° 0.5 mm 2 mps 713 mmHg 73%
    18:00 +8°C° 0.5 mm 2 mps 713 mmHg 81%
    19:00 +8°C° 0.4 mm 2 mps 713 mmHg 83%
    20:00 +7°C° 0.4 mm 2 mps 714 mmHg 85%
    21:00 +7°C° 0.4 mm 2 mps 714 mmHg 86%
    22:00 +7°C° 0 mm 2 mps 714 mmHg 85%
    23:00 +7°C° 0 mm 2 mps 714 mmHg 83%

    23 January, Thursday

    Time Temperature Precipitation Wind Pressure Humidity
    00:00 +7°C° 0 mm 2 mps 714 mmHg 81%
    01:00 +6°C° 0 mm 2 mps 714 mmHg 80%
    02:00 +6°C° 0 mm 2 mps 713 mmHg 78%
    03:00 +6°C° 0 mm 2 mps 713 mmHg 77%
    04:00 +5°C° 0 mm 3 mps 713 mmHg 76%
    05:00 +5°C° 0 mm 3 mps 713 mmHg 75%
    06:00 +5°C° 0 mm 3 mps 713 mmHg 74%
    07:00 +7°C° 0 mm 3 mps 713 mmHg 72%
    08:00 +7°C° 0 mm 3 mps 713 mmHg 71%
    09:00 +8°C° 0 mm 3 mps 714 mmHg 69%
    10:00 +8°C° 0.1 mm 4 mps 714 mmHg 66%
    11:00 +9°C° 0.1 mm 5 mps 714 mmHg 63%
    12:00 +10°C° 0.1 mm 6 mps 714 mmHg 60%
    13:00 +10°C° 0.2 mm 6 mps 714 mmHg 64%
    14:00 +9°C° 0.2 mm 6 mps 714 mmHg 68%
    15:00 +9°C° 0.2 mm 7 mps 714 mmHg 72%
    16:00 +8°C° 0 mm 5 mps 714 mmHg 73%
    17:00 +7°C° 0 mm 4 mps 714 mmHg 75%
    18:00 +8°C° 0 mm 3 mps 714 mmHg 76%
    19:00 +7°C° 0.4 mm 4 mps 714 mmHg 77%
    20:00 +7°C° 0.4 mm 4 mps 715 mmHg 79%
    21:00 +7°C° 0.4 mm 5 mps 715 mmHg 80%
    22:00 +7°C° 0.6 mm 4 mps 715 mmHg 82%
    23:00 +6°C° 0.6 mm 4 mps 715 mmHg 84%

    24 January, Friday

    Time Temperature Precipitation Wind Pressure Humidity
    00:00 +6°C° 0.6 mm 4 mps 715 mmHg 86%
    01:00 +6°C° 0.3 mm 4 mps 715 mmHg 86%
    02:00 +6°C° 0.3 mm 4 mps 715 mmHg 87%
    03:00 +7°C° 0.3 mm 3 mps 715 mmHg 87%
    04:00 +7°C° 0.1 mm 3 mps 715 mmHg 87%
    05:00 +7°C° 0.1 mm 3 mps 715 mmHg 87%
    06:00 +6°C° 0.1 mm 2 mps 715 mmHg 88%
    07:00 +7°C° 0 mm 2 mps 716 mmHg 85%
    08:00 +7°C° 0 mm 2 mps 716 mmHg 83%
    09:00 +8°C° 0 mm 2 mps 716 mmHg 80%
    10:00 +10°C° 0.1 mm 2 mps 717 mmHg 74%
    11:00 +11°C° 0.1 mm 3 mps 717 mmHg 68%
    12:00 +13°C° 0.1 mm 3 mps 717 mmHg 61%
    13:00 +13°C° 0.3 mm 3 mps 717 mmHg 61%
    14:00 +13°C° 0.3 mm 4 mps 716 mmHg 61%
    15:00 +13°C° 0.3 mm 4 mps 716 mmHg 61%
    16:00 +12°C° 0.3 mm 3 mps 716 mmHg 66%
    17:00 +11°C° 0.3 mm 3 mps 716 mmHg 72%
    18:00 +10°C° 0.3 mm 2 mps 716 mmHg 78%
    19:00 +9°C° 0.2 mm 2 mps 716 mmHg 80%
    20:00 +10°C° 0.2 mm 1 mps 717 mmHg 82%
    21:00 +9°C° 0.2 mm 0 mps 717 mmHg 83%
    22:00 +9°C° 0.3 mm 0 mps 717 mmHg 84%
    23:00 +10°C° 0.3 mm 1 mps 717 mmHg 86%
    Show more